Year,Month,Day,Hour,Minute,Value (Times are PST for temperature in C)
2015,12,09,00,00,7.20
2015,12,09,00,01,7.20
2015,12,09,00,02,7.20
2015,12,09,00,03,7.20
2015,12,09,00,04,7.20
2015,12,09,00,05,7.20
2015,12,09,00,06,7.20
2015,12,09,00,07,7.20
2015,12,09,00,08,7.20
2015,12,09,00,09,7.20
2015,12,09,00,10,7.20
2015,12,09,00,11,7.20
2015,12,09,00,12,7.20
2015,12,09,00,13,7.20
2015,12,09,00,14,7.20
2015,12,09,00,15,7.20
2015,12,09,00,16,7.20
2015,12,09,00,17,7.20
2015,12,09,00,18,7.20
2015,12,09,00,19,7.20
2015,12,09,00,20,7.20
2015,12,09,00,21,7.20
2015,12,09,00,22,7.20
2015,12,09,00,23,7.20
2015,12,09,00,24,7.20
2015,12,09,00,25,7.20
2015,12,09,00,26,7.20
2015,12,09,00,27,7.20
2015,12,09,00,28,7.20
2015,12,09,00,29,7.20
2015,12,09,00,30,7.20
2015,12,09,00,31,7.20
2015,12,09,00,32,7.20
2015,12,09,00,33,7.20
2015,12,09,00,34,7.20
2015,12,09,00,35,7.20
2015,12,09,00,36,7.30
2015,12,09,00,37,7.30
2015,12,09,00,38,7.30
2015,12,09,00,39,7.30
2015,12,09,00,40,7.30
2015,12,09,00,41,7.30
2015,12,09,00,42,7.30
2015,12,09,00,43,7.30
2015,12,09,00,44,7.30
2015,12,09,00,45,7.30
2015,12,09,00,46,7.30
2015,12,09,00,47,7.30
2015,12,09,00,48,7.30
2015,12,09,00,49,7.30
2015,12,09,00,50,7.30
2015,12,09,00,51,7.30
2015,12,09,00,52,7.30
2015,12,09,00,53,7.30
2015,12,09,00,54,7.30
2015,12,09,00,55,7.30
2015,12,09,00,56,7.30
2015,12,09,00,57,7.30
2015,12,09,00,58,7.30
2015,12,09,00,59,7.30
2015,12,09,01,00,7.30
2015,12,09,01,01,7.30
2015,12,09,01,02,7.30
2015,12,09,01,03,7.30
2015,12,09,01,04,7.30
2015,12,09,01,05,7.30
2015,12,09,01,06,7.30
2015,12,09,01,07,7.30
2015,12,09,01,08,7.30
2015,12,09,01,09,7.30
2015,12,09,01,10,7.30
2015,12,09,01,11,7.30
2015,12,09,01,12,7.30
2015,12,09,01,13,7.30
2015,12,09,01,14,7.30
2015,12,09,01,15,7.30
2015,12,09,01,16,7.30
2015,12,09,01,17,7.30
2015,12,09,01,18,7.30
2015,12,09,01,19,7.40
2015,12,09,01,20,7.40
2015,12,09,01,21,7.40
2015,12,09,01,22,7.40
2015,12,09,01,23,7.40
2015,12,09,01,24,7.30
2015,12,09,01,25,7.30
2015,12,09,01,26,7.30
2015,12,09,01,27,7.30
2015,12,09,01,28,7.30
2015,12,09,01,29,7.30
2015,12,09,01,30,7.30
2015,12,09,01,31,7.30
2015,12,09,01,32,7.30
2015,12,09,01,33,7.30
2015,12,09,01,34,7.30
2015,12,09,01,35,7.30
2015,12,09,01,36,7.30
2015,12,09,01,37,7.30
2015,12,09,01,38,7.30
2015,12,09,01,39,7.30
2015,12,09,01,40,7.30
2015,12,09,01,41,7.30
2015,12,09,01,42,7.30
2015,12,09,01,43,7.30
2015,12,09,01,44,7.30
2015,12,09,01,45,7.30
2015,12,09,01,46,7.30
2015,12,09,01,47,7.30
2015,12,09,01,48,7.30
2015,12,09,01,49,7.30
2015,12,09,01,50,7.30
2015,12,09,01,51,7.30
2015,12,09,01,52,7.30
2015,12,09,01,53,7.30
2015,12,09,01,54,7.30
2015,12,09,01,55,7.30
2015,12,09,01,56,7.30
2015,12,09,01,57,7.30
2015,12,09,01,58,7.30
2015,12,09,01,59,7.30
2015,12,09,02,00,7.30
2015,12,09,02,01,7.40
2015,12,09,02,02,7.40
2015,12,09,02,03,7.40
2015,12,09,02,04,7.40
2015,12,09,02,05,7.40
2015,12,09,02,06,7.40
2015,12,09,02,07,7.40
2015,12,09,02,08,7.40
2015,12,09,02,09,7.40
2015,12,09,02,10,7.40
2015,12,09,02,11,7.40
2015,12,09,02,12,7.40
2015,12,09,02,13,7.40
2015,12,09,02,14,7.40
2015,12,09,02,15,7.40
2015,12,09,02,16,7.40
2015,12,09,02,17,7.40
2015,12,09,02,18,7.40
2015,12,09,02,19,7.40
2015,12,09,02,20,7.40
2015,12,09,02,21,7.40
2015,12,09,02,22,7.40
2015,12,09,02,23,7.40
2015,12,09,02,24,7.40
2015,12,09,02,25,7.40
2015,12,09,02,26,7.40
2015,12,09,02,27,7.40
2015,12,09,02,28,7.40
2015,12,09,02,29,7.40
2015,12,09,02,30,7.40
2015,12,09,02,31,7.40
2015,12,09,02,32,7.40
2015,12,09,02,33,7.50
2015,12,09,02,34,7.50
2015,12,09,02,35,7.60
2015,12,09,02,36,7.60
2015,12,09,02,37,7.60
2015,12,09,02,38,7.70
2015,12,09,02,39,7.70
2015,12,09,02,40,7.70
2015,12,09,02,41,7.70
2015,12,09,02,42,7.70
2015,12,09,02,43,7.80
2015,12,09,02,44,7.80
2015,12,09,02,45,7.80
2015,12,09,02,46,7.80
2015,12,09,02,47,7.80
2015,12,09,02,48,7.80
2015,12,09,02,49,7.90
2015,12,09,02,50,7.90
2015,12,09,02,51,7.90
2015,12,09,02,52,7.90
2015,12,09,02,53,7.90
2015,12,09,02,54,8.00
2015,12,09,02,55,8.00
2015,12,09,02,56,8.00
2015,12,09,02,57,8.10
2015,12,09,02,58,8.10
2015,12,09,02,59,8.20
2015,12,09,03,00,8.30
2015,12,09,03,01,8.30
2015,12,09,03,02,8.40
2015,12,09,03,03,8.40
2015,12,09,03,04,8.40
2015,12,09,03,05,8.40
2015,12,09,03,06,8.50
2015,12,09,03,07,8.60
2015,12,09,03,08,8.60
2015,12,09,03,09,8.60
2015,12,09,03,10,8.60
2015,12,09,03,11,8.60
2015,12,09,03,12,8.60
2015,12,09,03,13,8.70
2015,12,09,03,14,8.70
2015,12,09,03,15,8.70
2015,12,09,03,16,8.70
2015,12,09,03,17,8.80
2015,12,09,03,18,8.80
2015,12,09,03,19,8.80
2015,12,09,03,20,8.80
2015,12,09,03,21,8.90
2015,12,09,03,22,8.90
2015,12,09,03,23,8.90
2015,12,09,03,24,8.90
2015,12,09,03,25,8.90
2015,12,09,03,26,8.80
2015,12,09,03,27,8.80
2015,12,09,03,28,8.80
2015,12,09,03,29,8.90
2015,12,09,03,30,8.80
2015,12,09,03,31,8.80
2015,12,09,03,32,8.90
2015,12,09,03,33,8.90
2015,12,09,03,34,8.90
2015,12,09,03,35,8.90
2015,12,09,03,36,8.90
2015,12,09,03,37,8.90
2015,12,09,03,38,8.90
2015,12,09,03,39,8.90
2015,12,09,03,40,8.90
2015,12,09,03,41,8.90
2015,12,09,03,42,8.90
2015,12,09,03,43,8.90
2015,12,09,03,44,8.90
2015,12,09,03,45,8.90
2015,12,09,03,46,8.90
2015,12,09,03,47,8.90
2015,12,09,03,48,8.90
2015,12,09,03,49,8.90
2015,12,09,03,50,8.90
2015,12,09,03,51,8.90
2015,12,09,03,52,8.90
2015,12,09,03,53,8.90
2015,12,09,03,54,8.90
2015,12,09,03,55,8.90
2015,12,09,03,56,8.90
2015,12,09,03,57,8.90
2015,12,09,03,58,9.00
2015,12,09,03,59,9.00
2015,12,09,04,00,9.00
2015,12,09,04,01,9.00
2015,12,09,04,02,9.00
2015,12,09,04,03,9.10
2015,12,09,04,04,9.10
2015,12,09,04,05,9.10
2015,12,09,04,06,9.10
2015,12,09,04,07,9.20
2015,12,09,04,08,9.20
2015,12,09,04,09,9.30
2015,12,09,04,10,9.30
2015,12,09,04,11,9.30
2015,12,09,04,12,9.40
2015,12,09,04,13,9.40
2015,12,09,04,14,9.40
2015,12,09,04,15,9.50
2015,12,09,04,16,9.50
2015,12,09,04,17,9.50
2015,12,09,04,18,9.60
2015,12,09,04,19,9.60
2015,12,09,04,20,9.60
2015,12,09,04,21,9.70
2015,12,09,04,22,9.70
2015,12,09,04,23,9.80
2015,12,09,04,24,9.80
2015,12,09,04,25,9.90
2015,12,09,04,26,10.00
2015,12,09,04,27,10.10
2015,12,09,04,28,10.10
2015,12,09,04,29,10.20
2015,12,09,04,30,10.30
2015,12,09,04,31,10.30
2015,12,09,04,32,10.30
2015,12,09,04,33,10.30
2015,12,09,04,34,10.40
2015,12,09,04,35,10.40
2015,12,09,04,36,10.40
2015,12,09,04,37,10.40
2015,12,09,04,38,10.50
2015,12,09,04,39,10.50
2015,12,09,04,40,10.50
2015,12,09,04,41,10.50
2015,12,09,04,42,10.60
2015,12,09,04,43,10.60
2015,12,09,04,44,10.60
2015,12,09,04,45,10.60
2015,12,09,04,46,10.60
2015,12,09,04,47,10.50
2015,12,09,04,48,10.60
2015,12,09,04,49,10.60
2015,12,09,04,50,10.60
2015,12,09,04,51,10.60
2015,12,09,04,52,10.60
2015,12,09,04,53,10.60
2015,12,09,04,54,10.60
2015,12,09,04,55,10.70
2015,12,09,04,56,10.70
2015,12,09,04,57,10.70
2015,12,09,04,58,10.60
2015,12,09,04,59,10.60
2015,12,09,05,00,10.60
2015,12,09,05,01,10.60
2015,12,09,05,02,10.60
2015,12,09,05,03,10.60
2015,12,09,05,04,10.70
2015,12,09,05,05,10.70
2015,12,09,05,06,10.70
2015,12,09,05,07,10.70
2015,12,09,05,08,10.70
2015,12,09,05,09,10.70
2015,12,09,05,10,10.60
2015,12,09,05,11,10.60
2015,12,09,05,12,10.60
2015,12,09,05,13,10.60
2015,12,09,05,14,10.60
2015,12,09,05,15,10.60
2015,12,09,05,16,10.60
2015,12,09,05,17,10.60
2015,12,09,05,18,10.60
2015,12,09,05,19,10.60
2015,12,09,09,16,8.60
2015,12,09,09,17,8.70
2015,12,09,09,18,8.60
2015,12,09,09,19,8.60
2015,12,09,09,20,8.60
2015,12,09,09,21,8.60
2015,12,09,09,22,8.60
2015,12,09,09,23,8.60
2015,12,09,09,24,8.60
2015,12,09,09,25,8.60
2015,12,09,09,26,8.60
2015,12,09,09,27,8.60
2015,12,09,09,28,8.70
2015,12,09,09,29,8.70
2015,12,09,09,30,8.80
2015,12,09,09,31,8.80
2015,12,09,09,32,8.80
2015,12,09,09,33,8.80
2015,12,09,09,34,8.80
2015,12,09,09,35,8.90
2015,12,09,09,36,8.90
2015,12,09,09,37,9.00
2015,12,09,09,38,9.00
2015,12,09,09,39,9.10
2015,12,09,09,40,9.10
2015,12,09,09,41,9.10
2015,12,09,09,42,9.10
2015,12,09,09,43,9.20
2015,12,09,09,44,9.30
2015,12,09,09,45,9.30
2015,12,09,09,46,9.30
2015,12,09,09,47,9.30
2015,12,09,09,48,9.40
2015,12,09,09,49,9.40
2015,12,09,09,50,9.40
2015,12,09,09,51,9.50
2015,12,09,09,52,9.50
2015,12,09,09,53,9.60
2015,12,09,09,54,9.60
2015,12,09,09,55,9.60
2015,12,09,09,56,9.70
2015,12,09,09,57,9.70
2015,12,09,09,58,9.70
2015,12,09,09,59,9.80
2015,12,09,10,00,9.80
2015,12,09,10,01,9.80
2015,12,09,10,02,9.80
2015,12,09,10,03,9.80
2015,12,09,10,04,9.90
2015,12,09,10,05,9.90
2015,12,09,10,06,9.90
2015,12,09,10,07,9.90
2015,12,09,10,08,10.00
2015,12,09,10,09,10.00
2015,12,09,10,10,10.00
2015,12,09,10,11,10.10
2015,12,09,10,12,10.10
2015,12,09,10,13,10.10
2015,12,09,10,14,10.10
2015,12,09,10,15,10.10
2015,12,09,10,16,10.20
2015,12,09,10,17,10.20
2015,12,09,10,18,10.20
2015,12,09,10,19,10.20
2015,12,09,10,20,10.30
2015,12,09,10,21,10.30
2015,12,09,10,22,10.30
2015,12,09,10,23,10.30
2015,12,09,10,24,10.30
2015,12,09,10,25,10.30
2015,12,09,10,26,10.30
2015,12,09,10,27,10.30
2015,12,09,10,28,10.30
2015,12,09,10,29,10.30
2015,12,09,10,30,10.40
2015,12,09,10,31,10.40
2015,12,09,10,32,10.40
2015,12,09,10,33,10.50
2015,12,09,10,34,10.50
2015,12,09,10,35,10.60
2015,12,09,10,36,10.60
2015,12,09,10,37,10.70
2015,12,09,10,38,10.70
2015,12,09,10,39,10.70
2015,12,09,10,40,10.60
2015,12,09,10,41,10.60
2015,12,09,10,42,10.70
2015,12,09,10,43,10.70
2015,12,09,10,44,10.70
2015,12,09,10,45,10.70
2015,12,09,10,46,10.70
2015,12,09,10,47,10.70
2015,12,09,10,48,10.70
2015,12,09,10,49,10.70
2015,12,09,10,50,10.70
2015,12,09,10,51,10.70
2015,12,09,10,52,10.70
2015,12,09,10,53,10.70
2015,12,09,10,54,10.70
2015,12,09,10,55,10.70
2015,12,09,10,56,10.70
2015,12,09,10,57,10.70
2015,12,09,10,58,10.60
2015,12,09,10,59,10.60
2015,12,09,11,00,10.70
2015,12,09,11,01,10.60
2015,12,09,11,02,10.70
2015,12,09,11,03,10.70
2015,12,09,11,04,10.70
2015,12,09,11,05,10.70
2015,12,09,11,06,10.70
2015,12,09,11,07,10.70
2015,12,09,11,08,10.80
2015,12,09,11,09,10.80
2015,12,09,11,10,10.80
2015,12,09,11,11,10.80
2015,12,09,11,12,10.80
2015,12,09,11,13,10.80
2015,12,09,11,14,10.90
2015,12,09,11,15,10.90
2015,12,09,11,16,10.90
2015,12,09,11,17,10.90
2015,12,09,11,18,10.90
2015,12,09,11,19,10.90
2015,12,09,11,20,10.90
2015,12,09,11,21,10.90
2015,12,09,11,22,10.90
2015,12,09,11,23,10.90
2015,12,09,11,24,10.80
2015,12,09,11,25,10.80
2015,12,09,11,26,10.80
2015,12,09,11,27,10.70
2015,12,09,11,28,10.70
2015,12,09,11,29,10.70
2015,12,09,11,30,10.70
2015,12,09,11,31,10.70
2015,12,09,11,32,10.70
2015,12,09,11,33,10.70
2015,12,09,11,34,10.70
2015,12,09,11,35,10.70
2015,12,09,11,36,10.70
2015,12,09,11,37,10.70
2015,12,09,11,38,10.60
2015,12,09,11,39,10.60
2015,12,09,11,40,10.60
2015,12,09,11,41,10.60
2015,12,09,11,42,10.60
2015,12,09,11,43,10.60
2015,12,09,11,44,10.60
2015,12,09,11,45,10.60
2015,12,09,11,46,10.60
2015,12,09,11,47,10.60
2015,12,09,11,48,10.60
2015,12,09,11,49,10.60
2015,12,09,11,50,10.60
2015,12,09,11,51,10.60
2015,12,09,11,52,10.60
2015,12,09,11,53,10.70
2015,12,09,11,54,10.70
2015,12,09,11,55,10.70
2015,12,09,11,56,10.70
2015,12,09,11,57,10.70
2015,12,09,11,58,10.70
2015,12,09,11,59,10.70
2015,12,09,12,00,10.70
2015,12,09,12,01,10.60
2015,12,09,12,02,10.60
2015,12,09,12,03,10.60
2015,12,09,12,04,10.60
2015,12,09,12,05,10.60
2015,12,09,12,06,10.60
2015,12,09,12,07,10.60
2015,12,09,12,08,10.50
2015,12,09,12,09,10.50
2015,12,09,12,10,10.50
2015,12,09,12,11,10.40
2015,12,09,12,12,10.40
2015,12,09,12,13,10.40
2015,12,09,12,14,10.40
2015,12,09,12,15,10.40
2015,12,09,12,16,10.40
2015,12,09,12,17,10.40
2015,12,09,12,18,10.30
2015,12,09,12,19,10.30
2015,12,09,12,20,10.30
2015,12,09,12,21,10.30
2015,12,09,12,22,10.30
2015,12,09,12,23,10.30
2015,12,09,12,24,10.30
2015,12,09,12,25,10.30
2015,12,09,12,26,10.30
2015,12,09,12,27,10.30
2015,12,09,12,28,10.30
2015,12,09,12,29,10.30
2015,12,09,12,30,10.30
2015,12,09,12,31,10.30
2015,12,09,12,32,10.30
2015,12,09,12,33,10.30
2015,12,09,12,34,10.30
2015,12,09,12,35,10.30
2015,12,09,12,36,10.30
2015,12,09,12,37,10.40
2015,12,09,12,38,10.40
2015,12,09,12,39,10.40
2015,12,09,12,40,10.50
2015,12,09,12,41,10.50
2015,12,09,12,42,10.60
2015,12,09,12,43,10.70
2015,12,09,12,44,10.80
2015,12,09,12,45,10.80
2015,12,09,12,46,10.80
2015,12,09,12,47,10.80
2015,12,09,12,48,10.80
2015,12,09,12,49,10.80
2015,12,09,12,50,10.80
2015,12,09,12,51,10.80
2015,12,09,12,52,10.70
2015,12,09,12,53,10.70
2015,12,09,12,54,10.60
2015,12,09,12,55,10.60
2015,12,09,12,56,10.50
2015,12,09,12,57,10.40
2015,12,09,12,58,10.40
2015,12,09,12,59,10.30
2015,12,09,13,00,10.30
2015,12,09,13,01,10.20
2015,12,09,13,02,10.20
2015,12,09,13,03,10.20
2015,12,09,13,04,10.20
2015,12,09,13,05,10.20
2015,12,09,13,06,10.10
2015,12,09,13,07,10.10
2015,12,09,13,08,10.10
2015,12,09,13,09,10.00
2015,12,09,13,10,9.90
2015,12,09,13,11,9.80
2015,12,09,13,12,9.60
2015,12,09,13,13,9.50
2015,12,09,13,14,9.40
2015,12,09,13,15,9.30
2015,12,09,13,16,9.30
2015,12,09,13,17,9.20
2015,12,09,13,18,9.20
2015,12,09,13,19,9.20
2015,12,09,13,20,9.20
2015,12,09,13,21,9.10
2015,12,09,13,22,9.00
2015,12,09,13,23,9.00
2015,12,09,13,24,8.90
2015,12,09,13,25,8.90
2015,12,09,13,26,8.80
2015,12,09,13,27,8.70
2015,12,09,13,28,8.70
2015,12,09,13,29,8.70
2015,12,09,13,30,8.70
2015,12,09,13,31,8.70
2015,12,09,13,32,8.70
2015,12,09,13,33,8.80
2015,12,09,13,34,8.80
2015,12,09,13,35,8.80
2015,12,09,13,36,8.80
2015,12,09,13,37,8.90
2015,12,09,13,38,8.90
2015,12,09,13,39,8.90
2015,12,09,13,40,8.90
2015,12,09,13,41,8.90
2015,12,09,13,42,8.90
2015,12,09,13,43,8.90
2015,12,09,13,44,8.90
2015,12,09,13,45,8.80
2015,12,09,13,46,8.80
2015,12,09,13,47,8.90
2015,12,09,13,48,8.90
2015,12,09,13,49,8.80
2015,12,09,13,50,8.80
2015,12,09,13,51,8.80
2015,12,09,13,52,8.80
2015,12,09,13,53,8.80
2015,12,09,13,54,8.70
2015,12,09,13,55,8.70
2015,12,09,13,56,8.60
2015,12,09,13,57,8.60
2015,12,09,13,58,8.60
2015,12,09,13,59,8.50
2015,12,09,14,00,8.50
2015,12,09,14,01,8.50
2015,12,09,14,02,8.50
2015,12,09,14,03,8.50
2015,12,09,14,04,8.60
2015,12,09,14,05,8.60
2015,12,09,14,06,8.60
2015,12,09,14,07,8.60
2015,12,09,14,08,8.50
2015,12,09,14,09,8.50
2015,12,09,14,10,8.40
2015,12,09,14,11,8.30
2015,12,09,14,12,8.30
2015,12,09,14,13,8.20
2015,12,09,14,14,8.20
2015,12,09,14,15,8.20
2015,12,09,14,16,8.10
2015,12,09,14,17,8.10
2015,12,09,14,18,8.10
2015,12,09,14,19,8.10
2015,12,09,14,20,8.00
2015,12,09,14,21,8.00
2015,12,09,14,22,8.10
2015,12,09,14,23,8.10
2015,12,09,14,24,8.10
2015,12,09,14,25,8.10
2015,12,09,14,26,8.10
2015,12,09,14,27,8.10
2015,12,09,14,28,8.10
2015,12,09,14,29,8.10
2015,12,09,14,30,8.10
2015,12,09,14,31,8.10
2015,12,09,14,32,8.10
2015,12,09,14,33,8.10
2015,12,09,14,34,8.10
2015,12,09,14,35,8.10
2015,12,09,14,36,8.10
2015,12,09,14,37,8.10
2015,12,09,14,38,8.10
2015,12,09,14,39,8.10
2015,12,09,14,40,8.10
2015,12,09,14,41,8.10
2015,12,09,14,42,8.10
2015,12,09,14,43,8.10
2015,12,09,14,44,8.20
2015,12,09,14,45,8.20
2015,12,09,14,46,8.20
2015,12,09,14,47,8.30
2015,12,09,14,48,8.30
2015,12,09,14,49,8.30
2015,12,09,14,50,8.30
2015,12,09,14,51,8.40
2015,12,09,14,52,8.40
2015,12,09,14,53,8.40
2015,12,09,14,54,8.50
2015,12,09,14,55,8.50
2015,12,09,14,56,8.50
2015,12,09,14,57,8.60
2015,12,09,14,58,8.60
2015,12,09,14,59,8.60
2015,12,09,15,00,8.60
2015,12,09,15,01,8.60
2015,12,09,15,02,8.60
2015,12,09,15,03,8.50
2015,12,09,15,04,8.50
2015,12,09,15,05,8.50
2015,12,09,15,06,8.50
2015,12,09,15,07,8.50
2015,12,09,15,08,8.40
2015,12,09,15,09,8.40
2015,12,09,15,10,8.40
2015,12,09,15,11,8.40
2015,12,09,15,12,8.40
2015,12,09,15,13,8.40
2015,12,09,15,14,8.40
2015,12,09,15,15,8.40
2015,12,09,15,16,8.30
2015,12,09,15,17,8.30
2015,12,09,15,18,8.30
2015,12,09,15,19,8.30
2015,12,09,15,20,8.30
2015,12,09,15,21,8.30
2015,12,09,15,22,8.30
2015,12,09,15,23,8.30
2015,12,09,15,24,8.30
2015,12,09,15,25,8.30
2015,12,09,15,26,8.30
2015,12,09,15,27,8.30
2015,12,09,15,28,8.30
2015,12,09,15,29,8.30
2015,12,09,15,30,8.30
2015,12,09,15,31,8.40
2015,12,09,15,32,8.40
2015,12,09,15,33,8.40
2015,12,09,15,34,8.40
2015,12,09,15,35,8.40
2015,12,09,15,36,8.40
2015,12,09,15,37,8.40
2015,12,09,15,38,8.40
2015,12,09,15,39,8.30
2015,12,09,15,40,8.30
2015,12,09,15,41,8.30
2015,12,09,15,42,8.30
2015,12,09,15,43,8.30
2015,12,09,15,44,8.30
2015,12,09,15,45,8.30
2015,12,09,15,46,8.20
2015,12,09,15,47,8.20
2015,12,09,15,48,8.20
2015,12,09,15,49,8.20
2015,12,09,15,50,8.20
2015,12,09,15,51,8.20
2015,12,09,15,52,8.10
2015,12,09,15,53,8.10
2015,12,09,15,54,8.10
2015,12,09,15,55,8.10
2015,12,09,15,56,8.10
2015,12,09,15,57,8.10
2015,12,09,15,58,8.00
2015,12,09,15,59,8.00
2015,12,09,16,00,8.00
2015,12,09,16,01,8.00
2015,12,09,16,02,8.00
2015,12,09,16,03,8.00
2015,12,09,16,04,8.00
2015,12,09,16,05,8.00
2015,12,09,16,06,8.00
2015,12,09,16,07,8.00
2015,12,09,16,08,8.00
2015,12,09,16,09,8.00
2015,12,09,16,10,8.00
2015,12,09,16,11,8.00
2015,12,09,16,12,8.00
2015,12,09,16,13,8.00
2015,12,09,16,14,8.00
2015,12,09,16,15,8.00
2015,12,09,16,16,8.00
2015,12,09,16,17,8.00
2015,12,09,16,18,8.10
2015,12,09,16,19,8.10
2015,12,09,16,20,8.10
2015,12,09,16,21,8.10
2015,12,09,16,22,8.10
2015,12,09,16,23,8.10
2015,12,09,16,24,8.10
2015,12,09,16,25,8.10
2015,12,09,16,26,8.10
2015,12,09,16,27,8.10
2015,12,09,16,28,8.10
2015,12,09,16,29,8.10
2015,12,09,16,30,8.10
2015,12,09,16,31,8.10
2015,12,09,16,32,8.10
2015,12,09,16,33,8.00
2015,12,09,16,34,8.00
2015,12,09,16,35,8.00
2015,12,09,16,36,8.00
2015,12,09,16,37,7.90
2015,12,09,16,38,7.90
2015,12,09,16,39,7.90
2015,12,09,16,40,7.90
2015,12,09,16,41,7.90
2015,12,09,16,42,7.80
2015,12,09,16,43,7.80
2015,12,09,16,44,7.80
2015,12,09,16,45,7.80
2015,12,09,16,46,7.80
2015,12,09,16,47,7.80
2015,12,09,16,48,7.80
2015,12,09,16,49,7.80
2015,12,09,16,50,7.80
2015,12,09,16,51,7.80
2015,12,09,16,52,7.80
2015,12,09,16,53,7.80
2015,12,09,16,54,7.70
2015,12,09,16,55,7.70
2015,12,09,16,56,7.60
2015,12,09,16,57,7.50
2015,12,09,16,58,7.40
2015,12,09,16,59,7.30
2015,12,09,17,00,7.30
2015,12,09,17,01,7.20
2015,12,09,17,02,7.20
2015,12,09,17,03,7.10
2015,12,09,17,04,7.10
2015,12,09,17,05,7.10
2015,12,09,17,06,7.20
2015,12,09,17,07,7.20
2015,12,09,17,08,7.20
2015,12,09,17,09,7.30
2015,12,09,17,10,7.30
2015,12,09,17,11,7.20
2015,12,09,17,12,7.20
2015,12,09,17,13,7.20
2015,12,09,17,14,7.10
2015,12,09,17,15,7.10
2015,12,09,17,16,7.10
2015,12,09,17,17,7.10
2015,12,09,17,18,7.00
2015,12,09,17,19,7.00
2015,12,09,17,20,7.00
2015,12,09,17,21,6.90
2015,12,09,17,22,6.90
2015,12,09,17,23,6.90
2015,12,09,17,24,6.90
2015,12,09,17,25,6.90
2015,12,09,17,26,6.80
2015,12,09,17,27,6.80
2015,12,09,17,28,6.80
2015,12,09,17,29,6.70
2015,12,09,17,30,6.70
2015,12,09,17,31,6.70
2015,12,09,17,32,6.80
2015,12,09,17,33,6.80
2015,12,09,17,34,6.80
2015,12,09,17,35,6.80
2015,12,09,17,36,6.80
2015,12,09,17,37,6.90
2015,12,09,17,38,6.90
2015,12,09,17,39,6.90
2015,12,09,17,40,6.90
2015,12,09,17,41,6.90
2015,12,09,17,42,6.90
2015,12,09,17,43,6.90
2015,12,09,17,44,6.90
2015,12,09,17,45,6.90
2015,12,09,17,46,6.80
2015,12,09,17,47,6.80
2015,12,09,17,48,6.80
2015,12,09,17,49,6.80
2015,12,09,17,50,6.80
2015,12,09,17,51,6.80
2015,12,09,17,52,6.80
2015,12,09,17,53,6.80
2015,12,09,17,54,6.80
2015,12,09,17,55,6.80
2015,12,09,17,56,6.90
2015,12,09,17,57,6.90
2015,12,09,17,58,6.90
2015,12,09,17,59,6.90
2015,12,09,18,00,7.00
2015,12,09,18,01,7.00
2015,12,09,18,02,7.00
2015,12,09,18,03,7.10
2015,12,09,18,04,7.10
2015,12,09,18,05,7.10
2015,12,09,18,06,7.10
2015,12,09,18,07,7.20
2015,12,09,18,08,7.20
2015,12,09,18,09,7.20
2015,12,09,18,10,7.20
2015,12,09,18,11,7.20
2015,12,09,18,12,7.20
2015,12,09,18,13,7.20
2015,12,09,18,14,7.20
2015,12,09,18,15,7.20
2015,12,09,18,16,7.10
2015,12,09,18,17,7.10
2015,12,09,18,18,7.10
2015,12,09,18,19,7.10
2015,12,09,18,20,7.10
2015,12,09,18,21,7.00
2015,12,09,18,22,7.00
2015,12,09,18,23,6.90
2015,12,09,18,24,6.90
2015,12,09,18,25,6.80
2015,12,09,18,26,6.80
2015,12,09,18,27,6.80
2015,12,09,18,28,6.70
2015,12,09,18,29,6.70
2015,12,09,18,30,6.70
2015,12,09,18,31,6.60
2015,12,09,18,32,6.60
2015,12,09,18,33,6.60
2015,12,09,18,34,6.60
2015,12,09,18,35,6.60
2015,12,09,18,36,6.60
2015,12,09,18,37,6.50
2015,12,09,18,38,6.50
2015,12,09,18,39,6.50
2015,12,09,18,40,6.50
2015,12,09,18,41,6.40
2015,12,09,18,42,6.40
2015,12,09,18,43,6.40
2015,12,09,18,44,6.40
2015,12,09,18,45,6.40
2015,12,09,18,46,6.40
2015,12,09,18,47,6.40
2015,12,09,18,48,6.30
2015,12,09,18,49,6.30
2015,12,09,18,50,6.30
2015,12,09,18,51,6.30
2015,12,09,18,52,6.30
2015,12,09,18,53,6.20
2015,12,09,18,54,6.20
2015,12,09,18,55,6.20
2015,12,09,18,56,6.10
2015,12,09,18,57,6.10
2015,12,09,18,58,6.10
2015,12,09,18,59,6.10
2015,12,09,19,00,6.10
2015,12,09,19,01,6.00
2015,12,09,19,02,6.00
2015,12,09,19,03,6.00
2015,12,09,19,04,6.00
2015,12,09,19,05,5.90
2015,12,09,19,06,5.90
2015,12,09,19,07,5.90
2015,12,09,19,08,5.90
2015,12,09,19,09,5.90
2015,12,09,19,10,5.90
2015,12,09,19,11,5.90
2015,12,09,19,12,5.90
2015,12,09,19,13,5.90
2015,12,09,19,14,5.90
2015,12,09,19,15,5.90
2015,12,09,19,16,5.80
2015,12,09,19,17,5.80
2015,12,09,19,18,5.80
2015,12,09,19,19,5.80
2015,12,09,19,20,5.80
2015,12,09,19,21,5.80
2015,12,09,19,22,5.80
2015,12,09,19,23,5.80
2015,12,09,19,24,5.80
2015,12,09,19,25,5.80
2015,12,09,19,26,5.70
2015,12,09,19,27,5.80
2015,12,09,19,28,5.80
2015,12,09,19,29,5.80
2015,12,09,19,30,5.70
2015,12,09,19,31,5.70
2015,12,09,19,32,5.70
2015,12,09,19,33,5.70
2015,12,09,19,34,5.70
2015,12,09,19,35,5.70
2015,12,09,19,36,5.70
2015,12,09,19,37,5.70
2015,12,09,19,38,5.70
2015,12,09,19,39,5.70
2015,12,09,19,40,5.70
2015,12,09,19,41,5.70
2015,12,09,19,42,5.70
2015,12,09,19,43,5.70
2015,12,09,19,44,5.70
2015,12,09,19,45,5.70
2015,12,09,19,46,5.70
2015,12,09,19,47,5.70
2015,12,09,19,48,5.70
2015,12,09,19,49,5.70
2015,12,09,19,50,5.70
2015,12,09,19,51,5.80
2015,12,09,19,52,5.80
2015,12,09,19,53,5.80
2015,12,09,19,54,5.70
2015,12,09,19,55,5.70
2015,12,09,19,56,5.70
2015,12,09,19,57,5.60
2015,12,09,19,58,5.60
2015,12,09,19,59,5.60
2015,12,09,20,00,5.60
2015,12,09,20,01,5.60
2015,12,09,20,02,5.60
2015,12,09,20,03,5.50
2015,12,09,20,04,5.50
2015,12,09,20,05,5.50
2015,12,09,20,06,5.60
2015,12,09,20,07,5.60
2015,12,09,20,08,5.60
2015,12,09,20,09,5.60
2015,12,09,20,10,5.60
2015,12,09,20,11,5.60
2015,12,09,20,12,5.60
2015,12,09,20,13,5.60
2015,12,09,20,14,5.60
2015,12,09,20,15,5.60
2015,12,09,20,16,5.60
2015,12,09,20,17,5.60
2015,12,09,20,18,5.60
2015,12,09,20,19,5.60
2015,12,09,20,20,5.70
2015,12,09,20,21,5.70
2015,12,09,20,22,5.80
2015,12,09,20,23,5.80
2015,12,09,20,24,5.80
2015,12,09,20,25,5.90
2015,12,09,20,26,5.90
2015,12,09,20,27,5.90
2015,12,09,20,28,5.90
2015,12,09,20,29,5.90
2015,12,09,20,30,6.00
2015,12,09,20,31,6.00
2015,12,09,20,32,6.10
2015,12,09,20,33,6.20
2015,12,09,20,34,6.30
2015,12,09,20,35,6.30
2015,12,09,20,36,6.40
2015,12,09,20,37,6.50
2015,12,09,20,38,6.60
2015,12,09,20,39,6.70
2015,12,09,20,40,6.70
2015,12,09,20,41,6.80
2015,12,09,20,42,6.80
2015,12,09,20,43,6.80
2015,12,09,20,44,6.80
2015,12,09,20,45,6.80
2015,12,09,20,46,6.80
2015,12,09,20,47,6.80
2015,12,09,20,48,6.80
2015,12,09,20,49,6.80
2015,12,09,20,50,6.80
2015,12,09,20,51,6.80
2015,12,09,20,52,6.80
2015,12,09,20,53,6.80
2015,12,09,20,54,6.80
2015,12,09,20,55,6.90
2015,12,09,20,56,6.90
2015,12,09,20,57,6.90
2015,12,09,20,58,7.00
2015,12,09,20,59,7.00
2015,12,09,21,00,7.10
2015,12,09,21,01,7.10
2015,12,09,21,02,7.10
2015,12,09,21,03,7.20
2015,12,09,21,04,7.20
2015,12,09,21,05,7.20
2015,12,09,21,06,7.20
2015,12,09,21,07,7.20
2015,12,09,21,08,7.30
2015,12,09,21,09,7.30
2015,12,09,21,10,7.30
2015,12,09,21,11,7.30
2015,12,09,21,12,7.30
2015,12,09,21,13,7.30
2015,12,09,21,14,7.40
2015,12,09,21,15,7.40
2015,12,09,21,16,7.40
2015,12,09,21,17,7.40
2015,12,09,21,18,7.40
2015,12,09,21,19,7.50
2015,12,09,21,20,7.50
2015,12,09,21,21,7.50
2015,12,09,21,22,7.60
2015,12,09,21,23,7.60
2015,12,09,21,24,7.70
2015,12,09,21,25,7.70
2015,12,09,21,26,7.70
2015,12,09,21,27,7.70
2015,12,09,21,28,7.80
2015,12,09,21,29,7.80
2015,12,09,21,30,7.80
2015,12,09,21,31,7.80
2015,12,09,21,32,7.80
2015,12,09,21,33,7.80
2015,12,09,21,34,7.80
2015,12,09,21,35,7.80
2015,12,09,21,36,7.80
2015,12,09,21,37,7.80
2015,12,09,21,38,7.80
2015,12,09,21,39,7.80
2015,12,09,21,40,7.80
2015,12,09,21,41,7.80
2015,12,09,21,42,7.80
2015,12,09,21,43,7.80
2015,12,09,21,44,7.80
2015,12,09,21,45,7.80
2015,12,09,21,46,7.80
2015,12,09,21,47,7.80
2015,12,09,21,48,7.80
2015,12,09,21,49,7.80
2015,12,09,21,50,7.80
2015,12,09,21,51,7.80
2015,12,09,21,52,7.90